weather.gov     
National Weather Service

Terminal Aerodrome Forecast
NWS Homepage
This page is being discontinued on March 12, 2014.
The same data is available at this site. Please update your bookmarks.
Thank you, and we apologize for the inconvenience.
Please send an email to SR-SRH.Webmaster@noaa.gov with any concerns.


Current Version
Previous Version:    01  02  03  04  05  06  07  08  09  10  11  12  13  14  15  16  17  18  19  20  21  22  23  24  25  26  27  28  29  
[Printable]
911
FTUS42 TJSJ 221700
TAFIST
TAF
TIST 221722Z 2218/2318 14013KT P6SM FEW023 SCT028 BKN050
      TEMPO 2218/2221 VRB12G20KT -SHRA BKN025
     FM222230 09010KT P6SM VCSH SCT025 BKN050 BKN100 PROB30
      2306/2310 VRB12G20KT 3SM +SHRA BKN022
     FM231300 13012KT P6SM VCTS SCT022CB BKN040=


U.S. Dept. of Commerce
NOAA National Weather Service
1325 East West Highway
Silver Spring, MD 20910
E-mail: w-nws.webmaster@noaa.gov
Page last modified: May 16, 2007
NATIONAL WEATHER SERVICE: for Safety, for Work, for Fun - FOR LIFE